Waarnemingen

Advertentie
Mijn weer
La Hague, Frankrijk (7020): temperatuur & dauwpunt: 12.11.2018 17:00:00 - 18.11.2018 17:00:00 (CET)La Hague, Frankrijk (7020): windsnelheid & windstoten: 12.11.2018 17:00:00 - 18.11.2018 17:00:00 (CET)La Hague, Frankrijk (7020): windrichting: 12.11.2018 17:00:00 - 18.11.2018 17:00:00 (CET)La Hague, Frankrijk (7020): luchtdruk: 12.11.2018 17:00:00 - 18.11.2018 17:00:00 (CET)La Hague, Frankrijk (7020): zicht: 12.11.2018 17:00:00 - 18.11.2018 17:00:00 (CET)La Hague, Frankrijk (7020): neerslag: 12.11.2018 17:00:00 - 18.11.2018 17:00:00 (CET)
Datum & Tijd tt [°C] td [°C] ff [km/u] ff [kn] fx [km/u] fx [kn] dd ppp [hPa] vv [km] rr [mm]
18.11.2018 17:00:00 10,8 5,5 47 25 65 35 ONO 1020,9 - 0,0
18.11.2018 16:00:00 10,7 5,2 41 22 64 35 ONO 1021,2 12 0,0
18.11.2018 15:00:00 10,7 5,0 42 23 60 33 ONO 1021,2 - 0,0
18.11.2018 14:00:00 10,6 4,7 44 24 63 34 ONO 1021,5 - 0,0
18.11.2018 13:00:00 10,4 4,5 40 22 58 32 ONO 1022,0 12 0,0
18.11.2018 12:00:00 9,9 4,3 42 23 59 32 O 1022,1 - 0,0
18.11.2018 11:00:00 9,9 4,5 41 22 61 33 O 1022,7 - 0,0
18.11.2018 10:00:00 9,9 4,7 43 23 62 34 O 1022,6 12 0,0
18.11.2018 09:00:00 9,6 4,8 44 24 62 33 O 1022,4 - 0,0
18.11.2018 08:00:00 9,1 4,7 38 20 53 28 O 1021,9 - 0,0
18.11.2018 07:00:00 9,1 4,7 34 18 52 28 O 1022,1 10 0,0
18.11.2018 06:00:00 9,4 4,8 38 20 50 27 O 1021,9 - 0,0
18.11.2018 05:00:00 9,3 4,7 29 16 48 26 O 1022,1 - 0,0
18.11.2018 04:00:00 9,0 4,2 29 16 45 25 O 1022,4 10 0,0
18.11.2018 03:00:00 8,8 3,6 31 17 46 25 O 1022,8 - 0,0
18.11.2018 02:00:00 8,8 3,4 32 17 53 29 O 1022,6 - 0,0
18.11.2018 01:00:00 9,2 4,0 33 18 53 29 O 1022,3 10 0,0
18.11.2018 00:00:00 9,2 4,0 35 19 62 33 O 1022,0 - 0,0
17.11.2018 23:00:00 9,0 4,2 36 19 57 31 O 1022,0 - 0,0
17.11.2018 22:00:00 8,4 4,0 29 16 62 34 O 1022,2 10 0,0
17.11.2018 21:00:00 9,1 4,9 41 22 61 33 O 1021,8 - 0,0
17.11.2018 20:00:00 10,1 6,1 41 22 62 34 O 1021,4 - 0,0
17.11.2018 19:00:00 10,5 6,8 39 21 59 32 ONO 1021,6 8 0,0
17.11.2018 18:00:00 9,8 6,3 36 19 58 31 O 1021,4 - 0,0
17.11.2018 17:00:00 9,5 6,2 43 23 60 33 O 1021,6 - 0,0
17.11.2018 16:00:00 9,7 6,6 44 24 62 33 O 1021,1 8 0,0
17.11.2018 15:00:00 9,9 7,1 40 22 57 31 O 1021,2 - 0,0
17.11.2018 14:00:00 9,8 7,2 40 21 57 31 O 1021,5 - 0,0
17.11.2018 13:00:00 9,9 7,5 39 21 54 29 O 1021,7 8 0,0
17.11.2018 12:00:00 9,1 7,0 44 24 61 33 O 1022,1 - 0,0
17.11.2018 11:00:00 9,5 7,9 42 23 59 32 O 1022,3 - 0,0
17.11.2018 10:00:00 9,0 7,4 30 16 58 32 O 1022,5 8 0,0
17.11.2018 09:00:00 9,4 8,0 39 21 59 32 O 1021,9 - 0,0
17.11.2018 08:00:00 10,0 8,8 35 19 53 29 ONO 1022,2 - 0,0
17.11.2018 07:00:00 10,2 9,0 34 19 49 26 O 1022,0 1,5 0,0
17.11.2018 06:00:00 10,3 9,1 37 20 50 27 O 1021,7 - 0,0
17.11.2018 05:00:00 10,0 8,8 34 18 55 30 O 1022,0 - 0,0
17.11.2018 04:00:00 10,4 9,2 36 19 55 30 O 1022,4 - 0,0
17.11.2018 03:00:00 10,4 9,2 35 19 49 26 O 1022,7 - 0,0
17.11.2018 02:00:00 10,6 9,2 33 18 46 25 O 1022,7 - 0,0
17.11.2018 01:00:00 10,9 9,5 31 17 44 24 O 1022,8 - 0,0
17.11.2018 00:00:00 11,2 9,8 28 15 39 21 O 1022,7 - 0,0
16.11.2018 23:00:00 11,6 10,3 27 14 36 19 O 1022,7 - 0,0
16.11.2018 22:00:00 11,5 10,2 26 14 38 21 O 1022,4 6 0,0
16.11.2018 21:00:00 11,0 9,7 20 11 38 21 O 1022,5 - 0,0
16.11.2018 20:00:00 11,3 10,0 29 16 42 23 O 1022,5 - 0,0
16.11.2018 19:00:00 11,5 10,2 27 15 42 23 O 1022,6 4,0 0,0
16.11.2018 18:00:00 11,4 10,1 27 14 38 20 O 1022,4 - 0,0
16.11.2018 17:00:00 11,6 - 26 14 38 21 O - - 0,0
16.11.2018 16:00:00 11,9 10,6 29 15 40 22 O 1022,3 8 0,0
16.11.2018 15:00:00 12,5 11,2 27 15 37 20 O 1022,2 - 0,0
16.11.2018 14:00:00 12,6 11,2 26 14 36 19 O 1022,6 - 0,0
16.11.2018 13:00:00 12,6 11,3 19 11 35 19 O 1023,1 8 0,0
16.11.2018 12:00:00 12,3 11,0 22 12 33 18 O 1023,3 - 0,0
16.11.2018 11:00:00 11,8 10,7 21 12 31 17 O 1023,4 - 0,0
16.11.2018 10:00:00 11,9 10,8 17 9 25 14 O 1023,3 6 0,0
16.11.2018 09:00:00 10,8 9,6 9 5 16 9 O 1023,1 - 0,0
16.11.2018 08:00:00 9,7 8,3 9 5 13 7 OZO 1022,3 - 0,2
16.11.2018 07:00:00 10,6 8,9 6 3 14 7 O 1021,9 10 0,0
16.11.2018 06:00:00 11,1 9,5 11 6 14 8 O 1021,8 - 0,0
16.11.2018 05:00:00 11,1 9,2 10 5 14 7 O 1021,4 - 0,0
16.11.2018 04:00:00 11,8 9,9 4 2 13 7 O 1021,7 10 0,0
16.11.2018 03:00:00 13,2 10,7 4 2 11 6 OZO 1021,8 - 0,0
16.11.2018 02:00:00 12,0 9,9 4 2 16 9 NO 1021,2 - 0,0
16.11.2018 01:00:00 12,3 10,4 5 3 18 10 Z 1021,2 10 0,0
16.11.2018 00:00:00 11,4 9,8 5 3 12 6 Z 1020,9 - 0,0
15.11.2018 23:00:00 11,7 9,9 7 4 13 7 Z 1020,5 - 0,0
15.11.2018 22:00:00 13,0 11,1 6 4 17 9 Z 1020,2 10 0,0
15.11.2018 21:00:00 13,5 11,5 13 7 19 10 ZZW 1020,1 - 0,0
15.11.2018 20:00:00 13,2 11,1 13 7 21 12 Z 1019,8 - 0,0
15.11.2018 19:00:00 13,3 11,2 18 10 33 18 ZZW 1019,8 8 0,0
15.11.2018 18:00:00 13,2 11,3 22 12 33 18 Z 1018,9 - 0,0
15.11.2018 17:00:00 13,0 10,9 21 11 33 18 Z 1018,6 - 0,0
15.11.2018 16:00:00 13,2 11,3 18 10 29 16 Z 1018,7 8 0,0
15.11.2018 15:00:00 13,0 11,1 11 6 31 17 Z 1018,8 - 0,0
15.11.2018 14:00:00 14,3 11,3 19 10 26 14 Z 1019,1 - 0,0
15.11.2018 13:00:00 14,5 11,5 15 8 19 10 ZZW 1019,1 10 0,0
15.11.2018 12:00:00 14,8 11,8 6 3 9 5 N 1019,4 - 0,0
15.11.2018 11:00:00 14,6 11,9 3 2 6 3 N 1019,7 - 0,0
15.11.2018 10:00:00 13,8 11,7 4 2 11 6 O 1019,8 4,0 -
15.11.2018 09:00:00 12,8 11,2 6 3 14 7 O 1019,6 - 0,0
15.11.2018 08:00:00 12,9 11,3 6 4 18 10 ZO 1019,2 - 0,0
15.11.2018 07:00:00 13,2 11,4 11 6 26 14 ZZO 1019,1 12 0,0
15.11.2018 06:00:00 13,2 11,3 17 9 26 14 Z 1019,0 - 0,0
15.11.2018 05:00:00 12,8 10,5 18 10 29 16 Z 1019,2 - 0,0
15.11.2018 04:00:00 12,7 10,1 16 9 26 14 ZZW 1019,2 12 0,0
15.11.2018 03:00:00 12,6 9,4 18 10 30 16 Z 1019,6 - 0,0
15.11.2018 02:00:00 12,5 8,8 13 7 29 15 Z 1019,7 - 0,0
15.11.2018 01:00:00 12,8 8,7 21 12 32 18 Z 1020,1 12 0,0
15.11.2018 00:00:00 12,9 9,0 20 11 36 20 Z 1020,2 - 0,0
14.11.2018 23:00:00 12,6 9,4 17 9 39 21 Z 1020,5 - 0,0
14.11.2018 22:00:00 12,5 10,0 26 14 40 22 Z 1020,5 10 0,0
14.11.2018 21:00:00 12,7 10,1 25 13 39 21 Z 1020,4 - 0,0
14.11.2018 20:00:00 12,7 10,2 26 14 40 22 Z 1020,4 - 0,0
14.11.2018 19:00:00 12,6 10,1 22 12 41 22 Z 1020,3 14 0,0
14.11.2018 18:00:00 12,8 10,3 19 10 41 22 Z 1020,3 - 0,0
14.11.2018 17:00:00 13,5 9,5 24 13 36 19 Z 1020,2 - 0,0
14.11.2018 16:00:00 14,3 9,5 21 12 37 20 Z 1020,5 14 0,0
14.11.2018 15:00:00 14,6 9,8 23 12 42 23 Z 1020,6 - -
14.11.2018 14:00:00 14,5 9,5 26 14 37 20 Z 1020,9 - -
14.11.2018 13:00:00 14,4 9,8 22 12 42 23 Z 1021,7 14 0,0
14.11.2018 12:00:00 13,5 9,9 26 14 - - Z 1022,4 - -
14.11.2018 11:00:00 - - - - - - - - - -
14.11.2018 10:00:00 - - - - - - - - - -
14.11.2018 09:00:00 - - - - - - - - - -
14.11.2018 08:00:00 10,8 8,4 24 13 39 21 Z 1022,9 - 0,0
14.11.2018 07:00:00 11,0 8,6 23 12 39 21 Z 1023,0 14 0,0
14.11.2018 06:00:00 11,4 9,0 23 13 45 24 Z 1023,0 - 0,0
14.11.2018 05:00:00 11,7 8,4 34 18 47 25 Z 1023,3 - 0,0
14.11.2018 04:00:00 12,1 9,1 27 15 46 25 Z 1023,9 14 0,0
14.11.2018 03:00:00 12,5 9,1 30 16 47 25 Z 1024,5 - 0,0
14.11.2018 02:00:00 12,8 8,7 29 16 49 26 Z 1025,2 - 0,0
14.11.2018 01:00:00 12,8 9,4 31 17 48 26 Z 1025,4 - 0,0
14.11.2018 00:00:00 13,0 9,6 32 17 47 26 ZZW 1025,7 - 0,0
13.11.2018 23:00:00 13,2 8,9 29 16 46 25 ZZW 1025,7 - 0,0
13.11.2018 22:00:00 13,4 9,1 30 16 45 24 ZZW 1025,7 14 0,0
13.11.2018 21:00:00 12,6 9,2 19 10 32 17 ZZO 1025,6 - 0,0
13.11.2018 20:00:00 12,9 8,8 18 10 27 15 Z 1025,7 - 0,0
13.11.2018 19:00:00 13,0 8,9 17 9 29 16 Z 1025,8 14 0,0
13.11.2018 18:00:00 13,3 9,4 19 11 35 19 ZZW 1025,6 - 0,0
13.11.2018 17:00:00 13,4 9,1 24 13 38 21 ZZW 1025,4 - 0,0
13.11.2018 16:00:00 13,9 8,9 29 16 42 23 ZW 1025,3 12 0,0
13.11.2018 15:00:00 14,5 9,7 30 16 44 24 ZZW 1025,2 - 0,0
13.11.2018 14:00:00 14,3 10,1 29 16 41 22 ZW 1025,1 - 0,0
13.11.2018 13:00:00 14,0 9,6 32 18 44 24 ZW 1024,8 12 0,0
13.11.2018 12:00:00 14,1 8,9 34 19 44 24 WZW 1024,5 - 0,0
13.11.2018 11:00:00 14,0 8,8 35 19 45 24 WZW 1023,7 - 0,0
13.11.2018 10:00:00 13,1 8,4 39 21 53 29 WZW 1022,9 12 0,0
13.11.2018 09:00:00 13,2 8,5 37 20 58 32 W 1022,2 - 0,2
13.11.2018 08:00:00 13,3 8,6 41 22 53 28 WZW 1020,8 - 0,0
13.11.2018 07:00:00 12,0 8,1 38 21 63 34 W 1019,9 12 0,6
13.11.2018 06:00:00 13,2 8,3 39 21 66 35 WZW 1018,8 - 0,0
13.11.2018 05:00:00 13,0 8,9 38 21 59 32 WZW 1017,9 - 0,0
13.11.2018 04:00:00 12,5 8,0 40 21 58 31 WZW 1017,3 20 0,2
13.11.2018 03:00:00 12,3 8,2 40 22 69 37 ZW 1016,7 - 1,2
13.11.2018 02:00:00 11,8 8,6 45 24 66 36 ZW 1015,8 - 0,2
13.11.2018 01:00:00 12,9 9,2 40 22 61 33 ZZW 1015,4 20 0,0
13.11.2018 00:00:00 12,9 9,2 44 24 63 34 ZZW 1014,9 - 0,6
12.11.2018 23:00:00 13,4 9,3 41 22 63 34 ZW 1014,6 - 0,0
12.11.2018 22:00:00 13,7 8,9 43 23 65 35 ZW 1014,3 20 0,0
12.11.2018 21:00:00 13,9 8,5 42 23 66 36 ZW 1013,8 - 0,0
12.11.2018 20:00:00 14,0 8,6 42 23 60 33 ZW 1013,4 - 0,0
12.11.2018 19:00:00 13,9 9,1 34 18 50 27 ZZW 1013,0 14 0,0
12.11.2018 18:00:00 13,8 9,4 32 17 48 26 ZZW 1012,5 - 0,0
12.11.2018 17:00:00 13,9 8,9 33 18 50 27 ZZW 1012,2 - 0,0

tt = temperatuur
td = dauwpunt
ff = windsnelheid
fx = windstoten
dd = windrichting
ppp = luchtdruk
vv = zicht
rr = neerslag

Weerstations in de omgeving